STARLINK-4455, 53500

Orbit data source: Space-Track

STARLINK-4455, 53500 is a payload satellite owned by SpaceX/Seattle (US) in SSO that was launched on Fri, 12 Aug 2022 UTC via an FALCON 9 launch vehicle from the Air Force Western Test Range (AFWTR). Payload-class satellites include a variety of spacecraft equipped with specific instruments for various scientific and technological missions. These include communications satellites like Starlink; space stations such as the ISS; scientific satellites like the Hubble; Earth observation satellites from companies like Planet Labs, Umbra, and HawkEye 360; GPS; miniature CubeSats for education and research; and military/defense satellites.

Loading next visibility...
Identifier
53500, 2022-099AM
Orbit
SSO
Country
Flag of USUS
Related business
Manufacturer
SpaceX/Seattle
Mission
Operational Commercial Communications
Bus & Motor
STARLINK, Unknown motor
Mass
300 kg wet, ~275 kg dry
Launch date (UTC)
2022-08-12 (3 years ago)
Launch vehicle
FALCON 9
Launch site
Air Force Western Test Range (AFWTR)
Object type
Payload
Rocket body
Debris
Shape & HBR
Box + 1 Pan, 10.1 m
Radar Cross Section
13.562 m², Large (>1 m²)

Expand to show TLE details & history
Last TLE update: 14 hours ago

TLE from 14 hours ago
0 STARLINK-4455
1 53500U 22099AM  25346.87485421  .00000949  00000-0  69975-4 0  9996
2 53500  97.6013 105.7300 0001927  90.9037 269.2410 15.05649431182995
Epoch: 2025-12-12T20:59Z
TLE epoch observation values (Epoch: 2025-12-12T20:59:47.403Z)
Latitude
-0.0001°
Longitude
68.97229°
Altitude
552.596 km
Speed
7.585 km/s
True Right ascension
07h 02m 55s
True Declination
0° 00' 00"
Sunlit
Object was in full shadow at epoch
Visualization orbit readout
Latitude
Unknown
Longitude
Unknown
Altitude
Unknown
Speed
Unknown
Apparent Right ascension
Unknown
Apparent Declination
Unknown
Sunlit
N/A
Visualization observer readout
Local Sidereal Time
09:16:57
Azimuth
Unknown
Elevation
Unknown
Doppler factor
Unknown
Orbital elements
Apogee altitude
547.841 km
Perigee altitude
545.172 km
Semi-major axis
6,924.643 km
Eccentricity
0.00019
Inclination
97.6013°
RAAN
105.73°
Arg. of periapsis
90.9037°
True anomaly
269.21892°
Mean anomaly
269.241°
Eccentric anomaly
269.22996°
Mean motion
3.76658 °/min
Orbital period
95.58 mins
BSTAR
0.000069975
Loading maneuver chart data...
Computing Atmospheric mass density...
Loading historical data...
Loading historical data...
Loading historical data...
Loading historical data...
Loading historical data...
Loading historical data...
Loading historical data...

Documentation

Showing up to 5 results
|